sat.trackr.live / text

‹ back to catalog

GEESAT-6 01

NORAD 65713 · 2025-214B

PAYLOAD ACTIVE UNKNOWN

§ Identity

Operator
Country
PRC
Launch date
2025-09-24
Launch site
YSLA
Launch vehicle
Mass (kg)
RCS (m²)

External: N2YO · Heavens-Above · Gunter

§ Orbital elements

Epoch: 2026-05-25T03:39:11.107296Z

Period
97.09 min
Inclination
49.9872°
Eccentricity
0.0012033
Mean motion
14.83182323 rev/d
Perigee alt
610.9 km
Apogee alt
627.7 km
Semi-major
6,997.4 km
B*
1.8814e-4
RAAN
55.3047°
Arg perigee
138.6670°
Mean anomaly
221.5181°
Rev number
3,608

§ Raw data

GEESAT-6 011 65713U 25214B   26145.15221189  .00001326  00000+0  18814-3 0  99992 65713  49.9872  55.3047 0012033 138.6670 221.5181 14.83182323 36089

JSON: /api/v1/satellites/65713 · /tle

For live sub-satellite position, see the globe view (requires WebGL).

§ Visibility from observer

Set your observer location to see the next 7 days of passes ≥ 10°. The values pass through the URL so the page stays shareable.

No JS? Fill the form by hand. The geolocation button needs JavaScript.